Location: Ammerl�gen
(47.2167°N, 9.6000°E)
Time: 11:04:19
(UTC+00:00)

SJ-6B - Pass Details

Date: 21 April 2021
Orbit: 510 x 580 km, 97.6° (Epoch: 07 May)

Event Time Altitude Azimuth Distance (km) Brightness Sun altitude
Exits shadow 19:18:28 - 174° (S) 2,557 5.9 -10.0°
Reaches altitude 10° 19:20:26 10° 178° (S) 1,728 5.0 -10.3°
Maximum altitude 19:24:07 60° 259° (W) 593 3.2 -10.8°
Drops below altitude 10° 19:27:52 10° 340° (NNW) 1,760 6.2 -11.3°
Sets 19:30:01 0° 344° (NNW) 2,662 7.1 -11.6°
